Back to catalog

STARLINK-37486

AliveCommunicationsVLEO
NORAD 69264·PAYLOAD·🇺🇸 United States

Launched May 29, 2026 from Cape Canaveral Space Force Station

Loading…

Next Passes (next 24 hours)

TLE

FreshSource: CelesTrak SupGP

Epoch: Sep 15, 2026, 03:03 UTC

1 69264C 26117AC  26258.12756944 -.00091478  00000+0 -27019-2 0  2584
2 69264  53.1568 178.9923 0001318  84.0586 152.9439 15.34446079    17

Track STARLINK-37486 in real time with AllMySat

Download on the App Store